Weather observations for the past three days for
Port Angeles Fairchild International Airport
Metric (Imperial)
Date Time (pdt) Wind (kph) Vis. (km) Weather Sky Cond. Temperature (ºC) Relative Humidity Wind Chill (°C) Heat Index (°C) Pressure Precipitation (cm)
Air Dwpt 6 hour altimeter (cm) sea level (mb) 1 hr 3 hr 6 hr
Max. Min.
08 17:53 NW 13 16.09 Partly Cloudy SCT060 13.3 6.7 65% 76.66 1022.0
08 16:53 W 17 16.09 Overcast OVC060 13.3 6.1 13.3 10.6 62% 76.66 1022.0
08 15:53 Vrbl 11 16.09 Mostly Cloudy BKN034 12.8 6.1 64% 76.63 1021.9
08 14:53 NW 9 16.09 A Few Clouds FEW032 12.2 5.6 64% 76.63 1021.7
08 13:53 Vrbl 9 16.09 Overcast OVC029 12.2 6.1 67% 76.61 1021.4
08 12:53 NW 15 G 28 16.09 Overcast OVC030 11.7 6.1 69% 76.58 1021.0
08 11:53 W 15 G 30 16.09 Overcast OVC028 10.6 6.1 74% 76.53 1020.5
08 10:53 NW 19 16.09 Overcast OVC024 10.6 6.1 10.6 8.3 74% 76.5 1020.2
08 09:53 W 17 16.09 Overcast OVC021 10 6.1 77% 8 76.48 1019.6
08 08:53 W 17 16.09 Overcast OVC017 10 6.7 80% 8 76.43 1019.0
08 07:53 W 15 16.09 Overcast OVC017 10 7.2 83% 8 76.4 1018.5
08 06:53 Vrbl 11 16.09 Overcast OVC016 9.4 7.2 86% 8 76.35 1017.9
08 05:53 SW 7 16.09 Overcast OVC016 8.9 7.2 89% 8 76.3 1017.4
08 04:53 W 9 16.09 Mostly Cloudy BKN016 8.3 7.2 8.3 6.7 93% 7 76.3 1017.4
08 03:53 Calm 16.09 Fair CLR 7.8 6.7 93% 76.28 1016.9
08 02:53 W 6 16.09 Fair CLR 7.8 6.7 93% 76.25 1016.8
08 01:53 Calm 16.09 Fair CLR 7.2 6.7 97% 76.23 1016.5
08 00:53 Calm 16.09 Fair CLR 7.2 6.7 97% 76.23 1016.4
07 23:53 S 6 16.09 Fair CLR 8.3 6.7 90% 76.25 1016.7
07 22:53 Calm 16.09 Fair CLR 8.3 6.7 12.8 7.8 90% 76.28 1016.9
07 21:53 W 7 16.09 Fair CLR 8.3 6.1 86% 7 76.28 1017.1
07 20:53 W 7 16.09 Fair CLR 9.4 6.7 83% 9 76.3 1017.2
07 19:53 W 7 16.09 Fair CLR 10.6 7.2 80% 76.3 1017.4
07 18:53 NW 9 16.09 Overcast OVC048 11.7 7.8 77% 76.35 1018.0
07 17:53 NW 13 16.09 Overcast OVC048 11.7 7.8 77% 76.38 1018.3
07 16:53 NW 9 16.09 Overcast OVC050 12.8 7.8 13.9 11.7 72% 76.4 1018.5
07 15:53 Vrbl 6 16.09 Fair CLR 12.8 7.8 72% 76.4 1018.8
07 14:53 NE 7 16.09 Fair CLR 13.3 7.8 70% 76.45 1019.3
07 13:53 N 7 16.09 Fair CLR 13.3 7.8 70% 76.48 1019.9
07 12:53 Vrbl 7 16.09 Fair CLR 12.8 8.3 74% 76.53 1020.4
07 11:53 NW 11 16.09 Fair CLR 12.2 6.7 69% 76.53 1020.5
07 10:53 NW 13 16.09 Mostly Cloudy BKN024 11.7 6.1 12.2 3.9 69% 76.56 1020.7
07 09:53 N 13 16.09 Overcast OVC026 11.1 5.6 69% 76.56 1020.7
07 08:53 Vrbl 7 16.09 Fair CLR 11.1 6.1 72% 76.58 1020.9
07 07:53 W 7 16.09 Fair CLR 10 5.6 74% 9 76.58 1021.1
07 06:53 Calm 14.48 Fair CLR 6.1 5.6 97% 76.58 1020.9
07 05:53 Calm 14.48 Fair CLR 5 4.4 96% 76.56 1020.7
07 04:53 SW 9 16.09 Fair CLR 6.1 5.6 10.6 4.4 97% 4 76.58 1021.0
07 03:53 W 6 16.09 Fair CLR 6.7 5.6 93% 76.58 1020.9
07 02:53 Calm 16.09 Mostly Cloudy BKN031 7.2 6.1 93% 76.61 1021.3
07 01:53 SW 6 16.09 Overcast OVC032 8.3 6.1 86% 76.63 1021.7
07 00:53 W 7 16.09 Overcast OVC031 8.9 6.7 86% 8 76.58 1021.2
06 23:53 Calm 16.09 Overcast OVC030 10 6.7 80% 76.58 1021.0
06 22:53 W 11 16.09 Overcast OVC027 10.6 7.2 12.2 10 80% 76.58 1021.0
06 21:53 SW 7 16.09 Overcast OVC024 10.6 8.3 86% 76.58 1021.2
06 20:53 W 15 G 30 16.09 Overcast OVC013 10.6 8.3 86% 76.58 1020.9
06 19:53 W 15 16.09 Overcast OVC014 11.1 8.9 86% 76.56 1020.8
06 18:53 W 9 16.09 Overcast OVC014 11.1 8.9 86% 76.56 1020.7
06 17:53 W 9 16.09 Overcast OVC014 11.1 8.9 86% 76.56 1020.6
06 16:53 W 7 16.09 Overcast OVC013 11.7 9.4 12.2 10.6 86% 76.53 1020.4
06 15:53 W 7 16.09 Overcast OVC011 11.7 9.4 86% 76.56 1020.6
06 14:53 W 13 16.09 Overcast OVC014 11.1 8.9 86% 76.56 1020.8
06 13:53 Vrbl 11 16.09 Overcast OVC017 11.7 8.9 83% 76.56 1020.7
06 12:53 W 17 16.09 Overcast OVC018 12.2 8.3 77% 76.53 1020.5
06 11:53 W 13 16.09 Overcast OVC013 10.6 8.3 86% 76.53 1020.4
06 10:53 W 17 16.09 Overcast OVC015 11.1 8.3 11.1 10 83% 76.5 1020.1
06 09:53 W 13 16.09 Overcast OVC014 10.6 7.8 83% 76.5 1019.9
06 08:53 NW 6 16.09 Overcast OVC014 10.6 7.8 83% 76.48 1019.5
06 07:53 NW 13 16.09 Overcast OVC013 10 7.8 86% 8 76.45 1019.4
06 06:53 W 9 16.09 Overcast OVC012 10 7.8 86% 9 76.43 1018.9
06 05:53 Calm 16.09 Overcast OVC012 10 7.8 86% 76.38 1018.5
06 04:53 W 9 16.09 Overcast OVC012 10 8.3 10.6 10 89% 9 76.38 1018.4
06 03:53 W 13 16.09 Overcast OVC012 10.6 8.3 86% 76.33 1017.6
06 02:53 W 11 16.09 Overcast OVC010 10.6 8.3 86% 76.3 1017.2
06 01:53 W 11 16.09 Overcast OVC011 10.6 8.3 86% 76.3 1017.2
06 00:53 W 17 16.09 Overcast OVC011 10.6 8.3 86% 76.28 1016.9
05 23:53 W 17 16.09 Overcast OVC009 10.6 8.9 89% 76.25 1016.5
05 22:53 W 17 16.09 Overcast OVC011 10.6 8.9 14.4 10.6 89% 76.23 1016.2
05 21:53 W 19 16.09 Overcast OVC011 10.6 8.9 89% 76.2 1016.1
05 20:53 W 20 G 43 16.09 Fair CLR 10.6 8.9 89% 76.15 1015.4
05 19:53 W 15 16.09 Fair CLR 11.7 8.9 83% 76.12 1015.0
05 18:53 W 17 16.09 Fair CLR 12.8 9.4 80% 76.12 1015.0
Date Time (pdt) Wind (kph) Vis. (km) Weather Sky Cond. Air Dwpt Max. Min. Relative Humidity Wind Chill (°C) Heat Index (°C) altimeter (cm) sea level (mb) 1 hr 3 hr 6 hr
6 hour
Temperature (ºC) Pressure Precipitation (cm)